• Em Portugal
  • Lista de países
  • Para 7 dias
  • Temperatura da água
  • Mapas de satélite
  • Mapa do tempo
  • Widgets de tempo
  • user-avatar
    Iniciar Sessão

    Previsão horária em Kolozab

    Hoje, 20 Agosto, Segunda-feira

    Tempo Temperatura Precipitação Vento Pressão Humidade
    00:00 +19°C° 0 mm 2 m/s 757 mmHg 70%
    01:00 +19°C° 0 mm 2 m/s 756 mmHg 68%
    02:00 +19°C° 0 mm 3 m/s 756 mmHg 68%
    03:00 +19°C° 0 mm 3 m/s 755 mmHg 67%
    04:00 +19°C° 0 mm 3 m/s 755 mmHg 66%
    05:00 +20°C° 0 mm 3 m/s 755 mmHg 64%
    06:00 +21°C° 0 mm 4 m/s 755 mmHg 62%
    07:00 +22°C° 0 mm 4 m/s 754 mmHg 60%
    08:00 +25°C° 0 mm 4 m/s 754 mmHg 56%
    09:00 +27°C° 0 mm 5 m/s 754 mmHg 52%
    10:00 +28°C° 0 mm 5 m/s 754 mmHg 49%
    11:00 +29°C° 0 mm 5 m/s 754 mmHg 48%
    12:00 +29°C° 0 mm 6 m/s 754 mmHg 47%
    13:00 +30°C° 0 mm 6 m/s 754 mmHg 47%
    14:00 +28°C° 0,1 mm 6 m/s 754 mmHg 53%
    15:00 +26°C° 0,1 mm 6 m/s 753 mmHg 60%
    16:00 +25°C° 0,1 mm 5 m/s 753 mmHg 66%
    17:00 +23°C° 0 mm 5 m/s 754 mmHg 69%
    18:00 +22°C° 0 mm 5 m/s 754 mmHg 73%
    19:00 +21°C° 0 mm 5 m/s 754 mmHg 76%
    20:00 +20°C° 0 mm 5 m/s 754 mmHg 78%
    21:00 +19°C° 0 mm 5 m/s 754 mmHg 80%
    22:00 +18°C° 0 mm 4 m/s 754 mmHg 82%
    23:00 +18°C° 0 mm 4 m/s 754 mmHg 81%

    Amanhã, 21 Agosto, Terça-feira

    Tempo Temperatura Precipitação Vento Pressão Humidade
    00:00 +17°C° 0 mm 4 m/s 755 mmHg 80%
    01:00 +17°C° 0 mm 4 m/s 755 mmHg 79%
    02:00 +15°C° 0 mm 4 m/s 755 mmHg 79%
    03:00 +15°C° 0 mm 4 m/s 755 mmHg 80%
    04:00 +14°C° 0 mm 4 m/s 756 mmHg 80%
    05:00 +15°C° 0 mm 4 m/s 756 mmHg 76%
    06:00 +16°C° 0 mm 5 m/s 756 mmHg 73%
    07:00 +17°C° 0 mm 5 m/s 757 mmHg 69%
    08:00 +19°C° 0 mm 5 m/s 757 mmHg 64%
    09:00 +20°C° 0 mm 5 m/s 758 mmHg 59%
    10:00 +22°C° 0 mm 4 m/s 758 mmHg 54%
    11:00 +22°C° 0 mm 4 m/s 758 mmHg 52%
    12:00 +23°C° 0 mm 4 m/s 758 mmHg 49%
    13:00 +23°C° 0 mm 4 m/s 758 mmHg 47%
    14:00 +23°C° 0 mm 4 m/s 759 mmHg 49%
    15:00 +23°C° 0 mm 4 m/s 759 mmHg 50%
    16:00 +22°C° 0 mm 3 m/s 759 mmHg 52%
    17:00 +21°C° 0 mm 3 m/s 759 mmHg 59%
    18:00 +19°C° 0 mm 3 m/s 759 mmHg 66%
    19:00 +18°C° 0 mm 2 m/s 759 mmHg 73%
    20:00 +17°C° 0 mm 2 m/s 760 mmHg 76%
    21:00 +16°C° 0 mm 2 m/s 760 mmHg 80%
    22:00 +15°C° 0 mm 1 m/s 760 mmHg 83%
    23:00 +15°C° 0 mm 1 m/s 760 mmHg 84%

    Depois de amanhã, 22 Agosto, Quarta-feira

    Tempo Temperatura Precipitação Vento Pressão Humidade
    00:00 +14°C° 0 mm 1 m/s 760 mmHg 86%
    01:00 +14°C° 0 mm 1 m/s 761 mmHg 87%
    02:00 +14°C° 0 mm 1 m/s 761 mmHg 87%
    03:00 +13°C° 0 mm 2 m/s 761 mmHg 88%
    04:00 +13°C° 0 mm 2 m/s 761 mmHg 89%
    05:00 +14°C° 0 mm 2 m/s 761 mmHg 84%
    06:00 +15°C° 0 mm 2 m/s 761 mmHg 79%
    07:00 +16°C° 0 mm 3 m/s 761 mmHg 74%
    08:00 +18°C° 0 mm 3 m/s 761 mmHg 67%
    09:00 +20°C° 0 mm 3 m/s 761 mmHg 61%
    10:00 +22°C° 0 mm 3 m/s 761 mmHg 54%
    11:00 +22°C° 0 mm 3 m/s 761 mmHg 51%
    12:00 +24°C° 0 mm 3 m/s 760 mmHg 49%
    13:00 +25°C° 0 mm 3 m/s 760 mmHg 46%
    14:00 +25°C° 0 mm 3 m/s 760 mmHg 46%
    15:00 +26°C° 0 mm 3 m/s 759 mmHg 47%
    16:00 +26°C° 0 mm 3 m/s 759 mmHg 47%
    17:00 +24°C° 0 mm 3 m/s 759 mmHg 52%
    18:00 +22°C° 0 mm 3 m/s 758 mmHg 57%
    19:00 +20°C° 0 mm 3 m/s 758 mmHg 63%
    20:00 +19°C° 0 mm 3 m/s 758 mmHg 62%
    21:00 +19°C° 0 mm 4 m/s 758 mmHg 62%
    22:00 +18°C° 0 mm 4 m/s 758 mmHg 61%
    23:00 +18°C° 0 mm 4 m/s 758 mmHg 61%

    23 Agosto, Quinta-feira

    Tempo Temperatura Precipitação Vento Pressão Humidade
    00:00 +17°C° 0 mm 4 m/s 758 mmHg 60%
    01:00 +17°C° 0 mm 4 m/s 757 mmHg 60%
    02:00 +17°C° 0 mm 4 m/s 757 mmHg 62%
    03:00 +17°C° 0 mm 4 m/s 757 mmHg 64%
    04:00 +17°C° 0 mm 4 m/s 757 mmHg 67%
    05:00 +18°C° 0 mm 4 m/s 756 mmHg 68%
    06:00 +19°C° 0 mm 4 m/s 756 mmHg 69%
    07:00 +19°C° 0 mm 4 m/s 756 mmHg 70%
    08:00 +21°C° 0 mm 5 m/s 756 mmHg 66%
    09:00 +23°C° 0 mm 5 m/s 756 mmHg 61%
    10:00 +26°C° 0 mm 5 m/s 756 mmHg 57%
    11:00 +26°C° 0 mm 5 m/s 755 mmHg 55%
    12:00 +27°C° 0 mm 5 m/s 755 mmHg 53%
    13:00 +27°C° 0 mm 4 m/s 755 mmHg 51%
    14:00 +27°C° 0 mm 4 m/s 754 mmHg 52%
    15:00 +28°C° 0 mm 4 m/s 754 mmHg 52%
    16:00 +28°C° 0 mm 3 m/s 754 mmHg 52%
    17:00 +27°C° 0 mm 3 m/s 753 mmHg 56%
    18:00 +26°C° 0 mm 3 m/s 753 mmHg 59%
    19:00 +25°C° 0 mm 3 m/s 753 mmHg 63%
    20:00 +24°C° 0 mm 3 m/s 753 mmHg 63%
    21:00 +23°C° 0 mm 4 m/s 753 mmHg 63%
    22:00 +22°C° 0 mm 4 m/s 753 mmHg 64%
    23:00 +22°C° 0,1 mm 4 m/s 752 mmHg 64%

    24 Agosto, Sexta-feira

    Tempo Temperatura Precipitação Vento Pressão Humidade
    00:00 +22°C° 0,1 mm 4 m/s 752 mmHg 64%
    01:00 +22°C° 0,1 mm 4 m/s 751 mmHg 64%
    02:00 +21°C° 0 mm 4 m/s 751 mmHg 67%
    03:00 +21°C° 0 mm 4 m/s 751 mmHg 71%
    04:00 +20°C° 0 mm 4 m/s 750 mmHg 75%
    05:00 +21°C° 0,1 mm 4 m/s 750 mmHg 75%
    06:00 +21°C° 0,1 mm 4 m/s 750 mmHg 76%
    07:00 +22°C° 0,1 mm 4 m/s 750 mmHg 77%
    08:00 +25°C° 0,2 mm 3 m/s 750 mmHg 72%
    09:00 +26°C° 0,2 mm 3 m/s 750 mmHg 68%
    10:00 +28°C° 0,2 mm 3 m/s 750 mmHg 63%
    11:00 +28°C° 1,1 mm 3 m/s 750 mmHg 60%
    12:00 +29°C° 1,1 mm 3 m/s 750 mmHg 58%
    13:00 +29°C° 1,1 mm 3 m/s 749 mmHg 56%
    14:00 +28°C° 1,4 mm 3 m/s 749 mmHg 63%
    15:00 +26°C° 1,4 mm 3 m/s 749 mmHg 70%
    16:00 +25°C° 1,4 mm 4 m/s 750 mmHg 77%
    17:00 +24°C° 2,3 mm 3 m/s 750 mmHg 81%
    18:00 +21°C° 2,3 mm 3 m/s 750 mmHg 86%
    19:00 +20°C° 2,3 mm 3 m/s 750 mmHg 91%
    20:00 +20°C° 0,2 mm 3 m/s 750 mmHg 92%
    21:00 +19°C° 0,2 mm 3 m/s 750 mmHg 92%
    22:00 +19°C° 0,2 mm 3 m/s 750 mmHg 93%
    23:00 +18°C° 0 mm 3 m/s 750 mmHg 92%

    25 Agosto, Sábado

    Tempo Temperatura Precipitação Vento Pressão Humidade
    00:00 +18°C° 0 mm 3 m/s 751 mmHg 91%
    01:00 +18°C° 0 mm 3 m/s 751 mmHg 90%
    02:00 +17°C° 0,1 mm 3 m/s 751 mmHg 89%
    03:00 +17°C° 0,1 mm 3 m/s 751 mmHg 89%
    04:00 +17°C° 0,1 mm 3 m/s 751 mmHg 88%
    05:00 +17°C° 0,2 mm 3 m/s 751 mmHg 88%
    06:00 +17°C° 0,2 mm 3 m/s 752 mmHg 87%
    07:00 +16°C° 0,2 mm 3 m/s 752 mmHg 87%
    08:00 +16°C° 0,5 mm 3 m/s 752 mmHg 87%
    09:00 +15°C° 0,5 mm 4 m/s 752 mmHg 88%
    10:00 +15°C° 0,5 mm 4 m/s 753 mmHg 88%
    11:00 +15°C° 0,9 mm 4 m/s 753 mmHg 88%
    12:00 +15°C° 0,9 mm 4 m/s 753 mmHg 88%
    13:00 +14°C° 0,9 mm 4 m/s 753 mmHg 88%
    14:00 +16°C° 0,5 mm 3 m/s 753 mmHg 84%
    15:00 +16°C° 0,5 mm 3 m/s 753 mmHg 81%
    16:00 +16°C° 0,5 mm 2 m/s 753 mmHg 78%
    17:00 +16°C° 0,1 mm 2 m/s 753 mmHg 79%
    18:00 +16°C° 0,1 mm 1 m/s 754 mmHg 80%
    19:00 +15°C° 0,1 mm 1 m/s 754 mmHg 82%
    20:00 +15°C° 0 mm 1 m/s 754 mmHg 82%
    21:00 +14°C° 0 mm 1 m/s 754 mmHg 83%
    22:00 +14°C° 0 mm 1 m/s 754 mmHg 84%
    23:00 +14°C° 0 mm 1 m/s 754 mmHg 85%
    Mostrar mais